This is the latest recevied weather packets stored in our database for station/object DL5TW-13. If no packets are shown the sender has not sent any weather packets the latest 1 day(s).
| Time | Temp. | Humidity | Pressure | Rain* | Wind** | Luminosity | Snow |
|---|---|---|---|---|---|---|---|
| 1777970085 | 16.11° C | 77% | 1004.9 hPa | 0 mm | 0 m/s | - | - |
| 1777969784 | 16.67° C | 77% | 1004.9 hPa | 0 mm | 0 m/s | - | - |
| 1777969484 | 16.67° C | 77% | 1004.9 hPa | 0 mm | 0 m/s | - | - |
| 1777969184 | 16.67° C | 78% | 1004.8 hPa | 0 mm | 0 m/s | - | - |
| 1777968883 | 16.67° C | 79% | 1004.8 hPa | 0 mm | 0 m/s | - | - |
| 1777968583 | 16.67° C | 80% | 1004.8 hPa | 0 mm | 0 m/s | - | - |
| 1777968283 | 16.11° C | 81% | 1004.9 hPa | 0 mm | 0 m/s | - | - |
| 1777967983 | 16.11° C | 81% | 1005 hPa | 0 mm | 0 m/s | - | - |
| 1777967682 | 16.11° C | 82% | 1005 hPa | 0 mm | 0 m/s | - | - |
| 1777967382 | 16.11° C | 83% | 1004.9 hPa | 0 mm | 0 m/s | - | - |
| 1777967082 | 15.56° C | 84% | 1005 hPa | 0 mm | 0 m/s | - | - |
| 1777966781 | 15.56° C | 85% | 1005 hPa | 0 mm | 0 m/s | - | - |
| 1777966481 | 14.44° C | 86% | 1004.9 hPa | 0 mm | 0 m/s | - | - |
| 1777966181 | 14.44° C | 86% | 1005 hPa | 0 mm | 0 m/s | - | - |
| 1777965880 | 14.44° C | 86% | 1005.1 hPa | 0 mm | 0 m/s | - | - |
| 1777965580 | 13.89° C | 87% | 1005.1 hPa | 0 mm | 0 m/s | - | - |
| 1777965280 | 13.89° C | 87% | 1005.1 hPa | 0 mm | 0 m/s | - | - |
| 1777964980 | 13.89° C | 87% | 1004.9 hPa | 0 mm | 0 m/s | - | - |
| 1777964679 | 13.33° C | 87% | 1005 hPa | 0 mm | 0 m/s | - | - |
| 1777964379 | 13.33° C | 87% | 1005.1 hPa | 0 mm | 0 m/s | - | - |
| 1777964079 | 13.33° C | 87% | 1005.1 hPa | 0 mm | 0 m/s | - | - |
| 1777963779 | 13.33° C | 88% | 1005.1 hPa | 0 mm | 0 m/s | - | - |
| 1777963478 | 12.78° C | 88% | 1005.3 hPa | 0 mm | 0 m/s | - | - |
| 1777963178 | 12.78° C | 88% | 1005.1 hPa | 0 mm | 0 m/s | - | - |
| 1777962878 | 12.78° C | 88% | 1005.2 hPa | 0 mm | 0 m/s | - | - |
* Rain latest hour (hover to see other rain measurements)
** Current wind speed in m/s (hover to see current wind gust speed)